EW9093 Weather Reports


time (UTC)temp
C
wind
direction
speed
KPH
gust
KPH
rain 1hr
cm
rain 24hr
cm
rain mn
cm
humidity
%
barometer
mb
20260506114803 12 349 8.0 20.9 0.00 0.00 0.00 74 1013.4
20260506114304 12 16 11.3 27.4 0.00 0.00 0.00 75 1013.4
20260506113804 12 42 11.3 27.4 0.00 0.00 0.00 72 1013.4
20260506112804 12 28 14.5 29.0 0.00 0.00 0.00 72 1013.4
20260506112306 12 42 14.5 29.0 0.00 0.00 0.00 72 1013.3
20260506111805 13 16 8.0 22.5 0.00 0.00 0.00 72 1013.3
20260506111305 13 30 11.3 20.9 0.00 0.00 0.00 70 1013.3
20260506110805 13 11 11.3 27.4 0.00 0.00 0.00 70 1013.4
20260506110305 13 5 16.1 33.8 0.00 0.00 0.00 69 1013.3
20260506104306 12 26 14.5 29.0 0.00 0.00 0.00 74 1013.5
20260506102307 11 23 9.7 20.9 0.00 0.00 0.00 79 1013.5
20260506100305 11 18 11.3 24.1 0.00 0.00 0.00 81 1013.6
20260506095306 11 21 11.3 22.5 0.00 0.00 0.00 83 1013.5
20260506094805 10 37 8.0 22.5 0.00 0.00 0.00 86 1013.6
20260506094305 10 42 9.7 22.5 0.00 0.00 0.00 87 1013.6
20260506092805 10 5 9.7 20.9 0.00 0.00 0.00 89 1013.6
20260506092306 10 347 9.7 22.5 0.00 0.00 0.00 89 1013.6
20260506091806 10 341 11.3 24.1 0.00 0.00 0.00 89 1013.5
20260506090807 10 335 8.0 16.1 0.00 0.00 0.00 90 1013.5
20260506085306 10 359 8.0 14.5 0.00 0.00 0.00 91 1013.5
20260506084305 10 327 9.7 19.3 0.00 0.00 0.00 89 1013.5
20260506082805 10 17 8.0 12.9 0.00 0.00 0.00 89 1013.4
20260506082305 10 15 4.8 16.1 0.00 0.00 0.00 88 1013.4
20260506081305 10 9 9.7 20.9 0.00 0.00 0.00 84 1013.4
20260506080805 10 0 8.0 20.9 0.00 0.00 0.00 81 1013.6
20260506071805 10 5 11.3 20.9 0.00 0.00 0.00 87 1013.1
20260506070305 10 329 11.3 25.7 0.00 0.00 0.00 90 1013.0
20260506062306 7 333 9.7 22.5 0.00 0.00 0.00 93 1013.0
20260506061805 7 333 8.0 22.5 0.00 0.00 0.00 93 1012.9
20260506061305 7 339 11.3 20.9 0.00 0.00 0.00 94 1013.0
20260506060805 7 336 8.0 19.3 0.00 0.00 0.00 94 1012.8
20260506060305 7 337 9.7 16.1 0.00 0.00 0.00 95 1012.8
20260506051305 5 324 6.4 11.3 0.00 0.00 0.00 95 1012.9
20260506050805 5 346 4.8 9.7 0.00 0.00 0.00 95 1013.0
20260506050305 5 339 3.2 9.7 0.00 0.00 0.00 95 1012.9
20260506041805 5 320 8.0 11.3 0.00 0.00 0.00 94 1012.9
20260506040805 5 342 4.8 9.7 0.00 0.00 0.00 93 1012.9
20260506035306 5 335 6.4 14.5 0.00 0.00 0.00 93 1013.0
20260506034305 5 332 4.8 11.3 0.00 0.00 0.00 93 1013.0
20260506033807 5 328 6.4 11.3 0.00 0.00 0.00 92 1013.0
20260506033304 5 339 4.8 16.1 0.00 0.00 0.00 92 1013.0
20260506032805 5 313 4.8 11.3 0.00 0.00 0.00 92 1013.1
20260506031805 5 323 4.8 9.7 0.00 0.00 0.00 92 1013.1
20260506031304 6 327 4.8 11.3 0.00 0.00 0.00 92 1013.2
20260506025805 6 336 4.8 16.1 0.00 0.00 0.00 91 1013.4
20260506025306 6 331 4.8 9.7 0.00 0.00 0.00 91 1013.4
20260506024805 6 325 4.8 8.0 0.00 0.00 0.00 91 1013.5
20260506024305 6 320 4.8 8.0 0.00 0.00 0.00 91 1013.5
20260506023807 6 352 3.2 4.8 0.00 0.00 0.00 91 1013.4
20260506023305 6 351 4.8 9.7 0.00 0.00 0.00 91 1013.3
20260506022805 6 7 3.2 4.8 0.00 0.00 0.00 91 1013.3
20260506022306 6 351 3.2 4.8 0.00 0.00 0.00 91 1013.4
20260506020804 6 14 3.2 9.7 0.00 0.00 0.00 91 1013.4
20260506020304 6 5 4.8 11.3 0.00 0.00 0.00 91 1013.5
20260506015804 6 19 3.2 9.7 0.00 0.00 0.00 90 1013.5
20260506015306 6 35 4.8 9.7 0.00 0.00 0.00 90 1013.5
20260506014804 7 14 3.2 4.8 0.00 0.00 0.00 90 1013.6
20260506011805 7 352 3.2 8.0 0.00 0.00 0.00 89 1013.5
20260506011305 7 1 4.8 9.7 0.00 0.00 0.00 89 1013.7
20260506010305 7 342 4.8 11.3 0.00 0.00 0.00 88 1013.6
20260506005805 7 336 4.8 11.3 0.00 0.00 0.00 88 1013.7
20260506005306 8 347 8.0 12.9 0.00 0.00 0.00 88 1013.8
20260506004305 8 335 4.8 14.5 0.00 0.00 0.00 88 1013.8
20260506003804 8 349 6.4 16.1 0.00 0.00 0.00 87 1013.8
20260506001304 8 357 4.8 16.1 0.00 0.00 0.00 87 1013.8
20260505235804 9 15 4.8 19.3 0.00 0.00 0.00 87 1013.8
20260505235305 9 7 8.0 19.3 0.00 0.00 0.00 87 1013.7
20260505234805 9 18 6.4 14.5 0.00 0.00 0.00 87 1013.8
20260505234305 9 29 4.8 9.7 0.00 0.00 0.00 87 1013.8
20260505233304 9 20 6.4 16.1 0.00 0.00 0.00 87 1013.9
20260505232804 9 19 4.8 12.9 0.00 0.00 0.00 87 1013.9
20260505231805 9 20 8.0 19.3 0.00 0.00 0.00 87 1013.9
20260505230824 9 11 4.8 24.1 0.00 0.00 0.00 87 1014.0
20260505224805 9 21 6.4 16.1 0.00 0.00 0.00 88 1014.1
20260505222306 10 17 6.4 19.3 0.00 0.00 0.00 88 1014.2
20260505221804 10 21 4.8 11.3 0.00 0.00 0.00 88 1014.1
20260505220304 10 18 8.0 11.3 0.00 0.00 0.00 88 1014.1
20260505215305 10 45 4.8 16.1 0.00 0.00 0.00 88 1014.1
20260505214305 10 25 1.6 4.8 0.00 0.00 0.00 88 1014.2
20260505213804 10 43 6.4 11.3 0.00 0.00 0.00 88 1014.2
20260505212306 10 17 6.4 16.1 0.00 0.00 0.00 88 1014.1
20260505211804 10 28 9.7 24.1 0.00 0.00 0.00 88 1014.1
20260505211306 10 24 4.8 19.3 0.00 0.00 0.00 88 1014.2
20260505210806 10 40 8.0 20.9 0.00 0.00 0.00 88 1014.2
20260505210304 10 35 9.7 20.9 0.00 0.00 0.00 88 1014.2
20260505205305 10 28 4.8 14.5 0.00 0.00 0.00 87 1014.1
20260505204305 10 43 6.4 14.5 0.00 0.00 0.00 87 1014.1
20260505203304 10 33 6.4 25.7 0.00 0.00 0.00 86 1014.2
20260505202306 10 31 8.0 19.3 0.00 0.00 0.00 86 1014.2
20260505201804 10 22 8.0 19.3 0.00 0.00 0.00 86 1014.1
20260505195305 10 33 6.4 12.9 0.00 0.00 0.00 84 1013.9
20260505194304 10 21 6.4 19.3 0.00 0.00 0.00 84 1013.8
20260505193804 11 32 4.8 19.3 0.00 0.00 0.00 85 1013.7
20260505192805 11 47 11.3 25.7 0.00 0.00 0.00 85 1013.8
20260505192305 11 30 9.7 20.9 0.00 0.00 0.00 85 1013.7
20260505191304 11 44 8.0 19.3 0.00 0.00 0.00 84 1013.6
20260505190804 11 19 9.7 24.1 0.00 0.00 0.00 83 1013.5
20260505190304 11 36 6.4 24.1 0.00 0.00 0.00 83 1013.5
20260505185804 11 33 9.7 22.5 0.00 0.00 0.00 82 1013.5
20260505184305 11 63 6.4 22.5 0.00 0.00 0.00 81 1013.4
20260505182804 12 49 9.7 27.4 0.00 0.00 0.00 78 1013.4
20260505182306 12 22 9.7 20.9 0.00 0.00 0.00 79 1013.4
20260505181804 12 16 9.7 22.5 0.00 0.00 0.00 79 1013.4
20260505175305 12 13 9.7 24.1 0.00 0.00 0.00 76 1013.3
20260505174304 13 29 11.3 20.9 0.00 0.00 0.00 75 1013.2
20260505173304 13 26 11.3 24.1 0.00 0.00 0.00 76 1013.2
20260505171304 13 62 11.3 20.9 0.00 0.00 0.00 77 1013.1
20260505170804 13 46 14.5 25.7 0.00 0.00 0.00 76 1013.1
20260505164304 14 34 11.3 32.2 0.00 0.00 0.00 76 1013.0
20260505163804 14 12 12.9 22.5 0.00 0.00 0.00 77 1013.0
20260505162306 14 52 9.7 20.9 0.00 0.00 0.00 77 1012.9
20260505161806 14 29 11.3 24.1 0.00 0.00 0.00 77 1012.8
20260505160304 15 48 9.7 20.9 0.00 0.00 0.00 74 1012.8
20260505153304 15 5 11.3 22.5 0.00 0.00 0.00 74 1012.8
20260505152305 15 355 11.3 22.5 0.00 0.00 0.00 74 1012.8
20260505151304 15 21 8.0 19.3 0.00 0.00 0.00 74 1012.8
20260505150304 15 24 9.7 22.5 0.00 0.00 0.00 74 1012.8
20260505130304 16 320 8.0 14.5 0.00 0.00 0.00 64 1012.9
20260505124803 16 352 9.7 19.3 0.00 0.00 0.00 64 1012.9
20260505123304 16 38 3.2 4.8 0.00 0.00 0.00 64 1012.9
20260505120804 16 303 4.8 9.7 0.00 0.00 0.00 64 1013.0
20260505120304 16 338 8.0 19.3 0.00 0.00 0.00 63 1013.0